User: anonymous   Login
Location: Poughquag
(41.6090°N, 73.6820°W)
Time: 21:20:03
(UTC-04:00)
Language:

Explorer 7 - Orbit

View from above orbital plane
View from above orbital plane
View from above satellite
View from above satellite

Ground track
Ground track

The orbit data is extracted from the following two-line orbital elements,

1    22U 59009A   24194.76597433  .00010793  00000-0  61772-3 0  9997
2    22  50.2788 290.6317 0111501 209.1576 150.3121 15.07950086448227
Epoch (UTC): 12 July 2024 18:23:00
Eccentricity: 0.0111501
inclination: 50.2788°
perigee height: 465 km
apogee height: 619 km
right ascension of ascending node: 290.6317°
argument of perigee: 209.1576°
revolutions per day: 15.07950086
mean anomaly at epoch: 150.3121°
orbit number at epoch: 44822

The dashed part of the orbit path shows where the satellite is in the earth's shadow,  

DLR